Regional Weather Roundup
Issued by NWS

Home | Current Version | Previous Version | Text Only | Print | Product List | Glossary Off
Versions: 1 2 3 4 5 6 7 8 9 10 11 12 13 14 15 16 17 18 19 20 21 22 23 24 25 26 27 28 29 30 31 32 33 34 35 36 37 38 39 40 41 42 43 44 45 46 47 48 49 50

000
ASUS43 KDTX 281510
RWRMI
MICHIGAN HOURLY REGIONAL WEATHER ROUNDUP
NATIONAL WEATHER SERVICE DETROIT/PONTIAC MI
1100 AM EDT SUN MAY 28 2017

NOTE: "FAIR" INDICATES FEW OR NO CLOUDS BELOW 12,000 FEET WITH NO
SIGNIFICANT WEATHER AND/OR OBSTRUCTION TO VISIBILITY.

MIZ047>049-052>055-059>063-066>070-074>076-081>083-281600-
SOUTHEAST LOWER MICHIGAN

CITY           SKY/WX    TMP DP  RH WIND       PRES   REMARKS
ADRIAN         MOSUNNY   69  61  75 SE5       29.75F
ALMA           MOSUNNY   71  55  56 S9        29.77F
ANN ARBOR      CLOUDY    69  58  67 E6        29.76F
BAD AXE        CLOUDY    69  55  61 S14       29.80S
CARO           MOSUNNY   71  57  60 S9        29.78F
DETROIT CITY   CLOUDY    68  57  68 E6        29.77F
DETROIT        CLOUDY    69  56  62 E7        29.77F
FLINT          CLOUDY    71  54  54 SE9       29.77F
GROSSE ILE     CLOUDY    70  56  61 CALM      29.75F
HILLSDALE      CLOUDY    68  59  73 E5        29.75F
HOWELL         CLOUDY    70  53  54 SE7       29.77F

CITY           SKY/WX    TMP DP  RH WIND       PRES   REMARKS
JACKSON        CLOUDY    70  59  68 SE8       29.75F
LAMBERTVILLE   CLOUDY    70  59  69 E5        29.74F
LANSING        SUNNY     72  54  53 SE8       29.76F
LAPEER         FAIR      70  53  55 SE10G18   29.79F
MASON          CLOUDY    70  59  67 SE7       29.76F
MONROE         PTSUNNY   68  57  67 E8        29.75F
PONTIAC        CLOUDY    68  53  58 E10       29.77F
PORT HOPE        N/A     69  57  65 S12G18    29.78R
PORT HURON     CLOUDY    68  52  56 E8        29.79F
TRI CITIES     CLOUDY    70  56  61 S12       29.77F
MIDLAND        FAIR      70  56  61 S6        29.77S
TROY           CLOUDY    70  49  46 E6        29.79F
SAGINAW HB     PTSUNNY   70  52  52 S9        29.77F
$$
MIZ043>046-050>051-056>058-064>065-071>073-077>080-281600-
SOUTHWEST LOWER MICHIGAN

CITY           SKY/WX    TMP DP  RH WIND       PRES   REMARKS
BATTLE CREEK   CLOUDY    71  59  65 SE7       29.76F
BENTON HARBOR  CLOUDY    72  59  63 VRB3      29.73F
BIG RAPIDS     MOSUNNY   69  54  59 SE8       29.75F
COLDWATER      CLOUDY    70  63  79 SE7       29.75F
FREMONT        FAIR      69  52  56 S5        29.74F
HOLLAND        PTSUNNY   72  57  59 SW5       29.75F
GRAND RAPIDS   CLOUDY    70  55  59 S9        29.75F
IONIA          CLOUDY    70  54  57 SE8       29.75F
KALAMAZOO      CLOUDY    70  58  65 VRB5      29.75F
LUDINGTON      LGT RAIN  55  53  90 W7G18     29.75S
MARSHALL       CLOUDY    71  60  68 SE3       29.75F
MOUNT PLEASANT SUNNY     72  56  56 S9        29.76F
MUSKEGON       CLOUDY    70  55  59 S6        29.74F
SOUTH HAVEN    PTSUNNY   72  60  64 SE6       29.74S
$$
MIZ016>042-281600-
NORTHERN LOWER MICHIGAN

CITY           SKY/WX    TMP DP  RH WIND       PRES   REMARKS
ALPENA         CLOUDY    67  58  72 SE7       29.75S
BEAVER ISLAND  CLOUDY    58  56  94 CALM      29.73S
BELLAIRE       CLOUDY    70  55  57 CALM      29.72F
CADILLAC       CLOUDY    60  57  91 CALM      29.76S
CHARLEVOIX     CLOUDY    60  53  78 CALM      29.77S
FRANKFORT      LGT RAIN  55  49  80 W9G17     29.75S
GAYLORD        CLOUDY    71  54  54 S13       29.75S
GRAYLING       MOSUNNY   70  58  65 SW12      29.76F
HARBOR SPRINGS CLOUDY    65  55  68 CALM      29.74R
HOUGHTON LAKE  MOSUNNY   71  56  58 SW8       29.76F
MANISTEE       TSTM      54  51  90 W12       29.74S
OSCODA         CLOUDY    71  54  55 SW14G22   29.77S
PELLSTON       CLOUDY    65  54  67 SE6       29.74S
ROGERS CITY    CLOUDY    60  55  83 E5        29.74F
TRAVERSE CITY  PTSUNNY   70  56  61 VRB5      29.71F
$$
MIZ007>008-015-281600-
EASTERN UPPER MICHIGAN

CITY           SKY/WX    TMP DP  RH WIND       PRES   REMARKS
KINROSS        CLOUDY    61  54  77 E12       29.73F
MACKINAC ISLAN CLOUDY    53  50  89 SE3       29.74S
NEWBERRY       LGT RAIN  54  53  97 S12G17    29.73R
S. S. MARIE    CLOUDY    61  53  75 SE10      29.73F
MUNISING         N/A     56  54  93 E3        29.72R
$$
MIZ004>006-011>014-085-281600-
CENTRAL UPPER MICHIGAN

CITY           SKY/WX    TMP DP  RH WIND       PRES   REMARKS
MANISTIQUE     CLOUDY    52  49  89 NW3       29.73R
ESCANABA       RAIN      57  56  96 SW5       29.74R
SAWYER-GWINN   RAIN      55  54  94 CALM      29.74S
$$
MIZ001>003-009>011-084-281600-
WESTERN UPPER MICHIGAN

CITY           SKY/WX    TMP DP  RH WIND       PRES   REMARKS
IRON MOUNTAIN  CLOUDY    58  52  80 NW5       29.72S
HOUGHTON       CLOUDY    60  52  74 NW5       29.68F
COPPER HARBOR    N/A     56  53  90 CALM      29.69R
IRONWOOD       CLOUDY    62  49  62 S6        29.67F
$$

ABBREVIATIONS USED IN REMARKS
   TC - TEMPERATURE IN CELSIUS
  WCI - WIND CHILL INDEX
   HX - HEAT INDEX
  VSB - VISIBILITY





USA.gov is the U.S. government's official web portal to all federal, state and local government web resources and services.